• In Uzbekistan
  • List of Countries
  • For 7 days
  • Water Temperature
  • Satellite Maps
  • Weather Map
  • Weather Widgets
  • user-avatar
    Login

    Hourly Weather Kalemie

    Today, 23 November, Thursday

    Time Temperature Precipitation Wind Pressure Humidity
    00:00 +25°C° 0 mm 1 mps 704 mmHg 28%
    01:00 +25°C° 0 mm 1 mps 704 mmHg 29%
    02:00 +24°C° 0 mm 1 mps 704 mmHg 29%
    03:00 +24°C° 0 mm 1 mps 704 mmHg 29%
    04:00 +23°C° 0 mm 1 mps 704 mmHg 29%
    05:00 +23°C° 0 mm 1 mps 704 mmHg 30%
    06:00 +24°C° 0 mm 2 mps 705 mmHg 27%
    07:00 +26°C° 0 mm 3 mps 705 mmHg 24%
    08:00 +28°C° 0 mm 3 mps 706 mmHg 22%
    09:00 +30°C° 0 mm 3 mps 706 mmHg 19%
    10:00 +33°C° 0 mm 3 mps 706 mmHg 17%
    11:00 +35°C° 0 mm 3 mps 706 mmHg 15%
    12:00 +36°C° 0 mm 3 mps 706 mmHg 14%
    13:00 +37°C° 0 mm 3 mps 705 mmHg 14%
    14:00 +38°C° 0 mm 3 mps 704 mmHg 14%
    15:00 +38°C° 0 mm 2 mps 704 mmHg 15%
    16:00 +37°C° 0 mm 2 mps 703 mmHg 17%
    17:00 +35°C° 0 mm 1 mps 703 mmHg 18%
    18:00 +32°C° 0 mm 1 mps 703 mmHg 20%
    19:00 +30°C° 0 mm 1 mps 703 mmHg 22%
    20:00 +28°C° 0 mm 1 mps 704 mmHg 24%
    21:00 +27°C° 0 mm 1 mps 704 mmHg 25%
    22:00 +26°C° 0 mm 1 mps 704 mmHg 25%
    23:00 +23°C° 0 mm 0 mps 704 mmHg 26%

    Tomorrow, 24 November, Friday

    Time Temperature Precipitation Wind Pressure Humidity
    00:00 +25°C° 0 mm 1 mps 704 mmHg 27%
    01:00 +24°C° 0 mm 1 mps 704 mmHg 27%
    02:00 +24°C° 0 mm 1 mps 704 mmHg 28%
    03:00 +23°C° 0 mm 1 mps 704 mmHg 28%
    04:00 +23°C° 0 mm 1 mps 704 mmHg 29%
    05:00 +22°C° 0 mm 1 mps 704 mmHg 30%
    06:00 +24°C° 0 mm 1 mps 705 mmHg 28%
    07:00 +26°C° 0 mm 2 mps 705 mmHg 25%
    08:00 +27°C° 0 mm 2 mps 706 mmHg 23%
    09:00 +30°C° 0 mm 2 mps 706 mmHg 20%
    10:00 +32°C° 0 mm 2 mps 707 mmHg 18%
    11:00 +36°C° 0 mm 3 mps 707 mmHg 15%
    12:00 +37°C° 0 mm 2 mps 706 mmHg 14%
    13:00 +38°C° 0 mm 2 mps 705 mmHg 14%
    14:00 +39°C° 0 mm 2 mps 704 mmHg 13%
    15:00 +38°C° 0 mm 2 mps 704 mmHg 15%
    16:00 +36°C° 0 mm 1 mps 703 mmHg 17%
    17:00 +35°C° 0 mm 1 mps 703 mmHg 19%
    18:00 +32°C° 0 mm 1 mps 704 mmHg 21%
    19:00 +30°C° 0 mm 1 mps 704 mmHg 22%
    20:00 +28°C° 0 mm 1 mps 704 mmHg 24%
    21:00 +27°C° 0 mm 1 mps 705 mmHg 25%
    22:00 +25°C° 0 mm 0 mps 705 mmHg 26%
    23:00 +24°C° 0 mm 0 mps 705 mmHg 26%

    Day after tomorrow, 25 November, Saturday

    Time Temperature Precipitation Wind Pressure Humidity
    00:00 +23°C° 0 mm 0 mps 705 mmHg 27%
    01:00 +25°C° 0 mm 1 mps 704 mmHg 28%
    02:00 +24°C° 0 mm 1 mps 704 mmHg 29%
    03:00 +24°C° 0 mm 1 mps 704 mmHg 29%
    04:00 +23°C° 0 mm 1 mps 704 mmHg 30%
    05:00 +23°C° 0 mm 1 mps 705 mmHg 30%
    06:00 +25°C° 0 mm 2 mps 705 mmHg 27%
    07:00 +26°C° 0 mm 2 mps 706 mmHg 24%
    08:00 +28°C° 0 mm 3 mps 707 mmHg 20%
    09:00 +31°C° 0 mm 3 mps 707 mmHg 18%
    10:00 +34°C° 0 mm 3 mps 707 mmHg 16%
    11:00 +37°C° 0 mm 4 mps 708 mmHg 14%
    12:00 +37°C° 0 mm 3 mps 707 mmHg 14%
    13:00 +38°C° 0 mm 3 mps 706 mmHg 14%
    14:00 +39°C° 0 mm 3 mps 705 mmHg 14%
    15:00 +38°C° 0 mm 2 mps 704 mmHg 15%
    16:00 +37°C° 0 mm 2 mps 704 mmHg 17%
    17:00 +35°C° 0 mm 1 mps 704 mmHg 19%
    18:00 +33°C° 0 mm 1 mps 704 mmHg 21%
    19:00 +31°C° 0 mm 1 mps 705 mmHg 23%
    20:00 +29°C° 0 mm 1 mps 705 mmHg 26%
    21:00 +28°C° 0 mm 1 mps 706 mmHg 27%
    22:00 +26°C° 0 mm 0 mps 706 mmHg 27%
    23:00 +26°C° 0 mm 0 mps 706 mmHg 28%

    26 November, Sunday

    Time Temperature Precipitation Wind Pressure Humidity
    00:00 +25°C° 0 mm 0 mps 706 mmHg 29%
    01:00 +25°C° 0 mm 0 mps 705 mmHg 30%
    02:00 +24°C° 0 mm 0 mps 705 mmHg 32%
    03:00 +24°C° 0 mm 0 mps 705 mmHg 34%
    04:00 +23°C° 0 mm 0 mps 705 mmHg 36%
    05:00 +22°C° 0 mm 0 mps 705 mmHg 38%
    06:00 +26°C° 0 mm 1 mps 706 mmHg 36%
    07:00 +28°C° 0 mm 1 mps 707 mmHg 34%
    08:00 +30°C° 0 mm 1 mps 708 mmHg 32%
    09:00 +33°C° 0 mm 1 mps 708 mmHg 27%
    10:00 +36°C° 0 mm 1 mps 708 mmHg 22%
    11:00 +39°C° 0 mm 1 mps 708 mmHg 18%
    12:00 +39°C° 0 mm 2 mps 707 mmHg 17%
    13:00 +40°C° 0 mm 2 mps 706 mmHg 17%
    14:00 +40°C° 0 mm 2 mps 705 mmHg 17%
    15:00 +39°C° 0 mm 2 mps 705 mmHg 19%
    16:00 +38°C° 0 mm 2 mps 705 mmHg 21%
    17:00 +37°C° 0 mm 2 mps 704 mmHg 23%
    18:00 +36°C° 0 mm 2 mps 705 mmHg 27%
    19:00 +34°C° 0 mm 2 mps 705 mmHg 31%
    20:00 +31°C° 0 mm 2 mps 706 mmHg 35%
    21:00 +31°C° 0 mm 1 mps 706 mmHg 37%
    22:00 +30°C° 0 mm 1 mps 706 mmHg 39%
    23:00 +30°C° 0 mm 1 mps 706 mmHg 42%

    27 November, Monday

    Time Temperature Precipitation Wind Pressure Humidity
    00:00 +29°C° 0 mm 1 mps 706 mmHg 43%
    01:00 +29°C° 0 mm 1 mps 705 mmHg 44%
    02:00 +27°C° 0 mm 0 mps 705 mmHg 45%
    03:00 +26°C° 0 mm 0 mps 705 mmHg 46%
    04:00 +26°C° 0 mm 0 mps 705 mmHg 47%
    05:00 +26°C° 0 mm 0 mps 706 mmHg 48%
    06:00 +28°C° 0 mm 1 mps 706 mmHg 47%
    07:00 +29°C° 0 mm 1 mps 707 mmHg 45%
    08:00 +29°C° 0 mm 2 mps 707 mmHg 44%
    09:00 +30°C° 0 mm 2 mps 707 mmHg 42%
    10:00 +31°C° 0 mm 2 mps 707 mmHg 41%
    11:00 +32°C° 0 mm 2 mps 707 mmHg 39%
    12:00 +32°C° 0 mm 2 mps 706 mmHg 38%
    13:00 +34°C° 0 mm 2 mps 705 mmHg 37%
    14:00 +34°C° 0 mm 3 mps 705 mmHg 36%
    15:00 +34°C° 0 mm 2 mps 705 mmHg 36%
    16:00 +34°C° 0 mm 2 mps 705 mmHg 36%
    17:00 +34°C° 0 mm 2 mps 705 mmHg 36%
    18:00 +31°C° 0 mm 2 mps 705 mmHg 39%
    19:00 +30°C° 0 mm 1 mps 705 mmHg 43%
    20:00 +28°C° 0 mm 1 mps 706 mmHg 46%
    21:00 +25°C° 0 mm 0 mps 706 mmHg 47%
    22:00 +25°C° 0 mm 0 mps 705 mmHg 48%
    23:00 +24°C° 0 mm 0 mps 705 mmHg 48%

    28 November, Tuesday

    Time Temperature Precipitation Wind Pressure Humidity
    00:00 +24°C° 0 mm 0 mps 705 mmHg 49%
    01:00 +24°C° 0 mm 0 mps 705 mmHg 49%
    02:00 +23°C° 0 mm 0 mps 704 mmHg 49%
    03:00 +23°C° 0 mm 0 mps 704 mmHg 50%
    04:00 +23°C° 0 mm 0 mps 704 mmHg 51%
    05:00 +22°C° 0 mm 0 mps 705 mmHg 52%
    06:00 +24°C° 0 mm 0 mps 706 mmHg 47%
    07:00 +26°C° 0 mm 0 mps 706 mmHg 43%
    08:00 +28°C° 0 mm 0 mps 707 mmHg 38%
    09:00 +32°C° 0 mm 1 mps 707 mmHg 33%
    10:00 +35°C° 0 mm 2 mps 707 mmHg 28%
    11:00 +37°C° 0 mm 2 mps 707 mmHg 23%
    12:00 +38°C° 0 mm 2 mps 706 mmHg 22%
    13:00 +38°C° 0 mm 2 mps 705 mmHg 21%
    14:00 +39°C° 0 mm 2 mps 704 mmHg 20%
    15:00 +38°C° 0 mm 2 mps 704 mmHg 22%
    16:00 +37°C° 0 mm 2 mps 704 mmHg 23%
    17:00 +36°C° 0 mm 2 mps 704 mmHg 24%
    18:00 +35°C° 0 mm 2 mps 704 mmHg 27%
    19:00 +32°C° 0 mm 1 mps 704 mmHg 30%
    20:00 +30°C° 0 mm 1 mps 705 mmHg 33%
    21:00 +29°C° 0 mm 1 mps 705 mmHg 35%
    22:00 +29°C° 0 mm 1 mps 705 mmHg 36%
    23:00 +28°C° 0 mm 1 mps 705 mmHg 38%
    Show more